Zurück zum Katalog

STARLINK-34614

AktivKommunikationVLEO
NORAD 65030·PAYLOAD·🇺🇸 United States

Gestartet Jul 30, 2025 von Cape Canaveral Space Force Station

Loading…

Nächste Überflüge (nächste 24 Stunden)

TLE

AktuellSource: CelesTrak SupGP

Epoche: Sep 14, 2026, 20:59 UTC

1 65030C 25161R   26257.87479167 -.00072132  00000+0 -21310-2 0  2572
2 65030  53.1579 133.9616 0001184  86.0220   1.2777 15.34429256    13

Verfolge STARLINK-34614 in Echtzeit mit AllMySat

Download on the App Store